Weather Roundup
Issued by NWS Springfield, MO

Home | Current Version | Previous Version | Text Only | Print | Product List | Glossary On
Versions: 1 2 3 4 5 6 7 8 9 10 11 12 13 14 15 16 17 18 19 20 21 22 23 24 25 26 27 28 29 30 31 32 33 34 35 36 37 38 39 40 41 42 43 44 45 46 47 48 49 50
000
NZUS99 KSGF 312207
HRRSGF

HOURLY WEATHER
NATIONAL WEATHER SERVICE SPRINGFIELD MO
500 PM CDT FRI JUL 31 2015

......SGF CWA......

CITY           SKY/WX    TMP DP  RH WIND       PRES   REMARKS
SPRINGFIELD    SUNNY     88  55  32 SW9       30.10F
JOPLIN         SUNNY     90  63  40 S6        30.09F HX  91
WEST PLAINS    SUNNY     89  58  34 W8        30.12F
ROLLA          SUNNY     88  56  33 W9        30.08F
OSAGE BEACH    SUNNY     90  61  37 SW6       30.08F
BRANSON        MOSUNNY   90  57  33 CALM      30.12F

......SURROUNDING SGF CWA......

CITY           SKY/WX    TMP DP  RH WIND       PRES   REMARKS
CHANUTE        MOSUNNY   91  67  44 CALM      30.07F HX  94
PARSONS        SUNNY     88  74  63 CALM      30.08F HX  96
COFFEYVILLE    PTSUNNY   91  72  53 S7        30.06F HX  98
EMPORIA        SUNNY     90  66  45 CALM      30.08F HX  92
GROVE OK       SUNNY     90  63  40 SE7       30.10F HX  90
ROGERS AR      SUNNY     88  61  40 VRB7      30.12F
SILOAM SPRINGS SUNNY     88  63  42 SE5       30.10F
HARRISON AR    SUNNY     88  55  32 SW3       30.12F
NEAR YELLVILLE SUNNY     91  59  33 NE5       30.08F HX  90

......KANSAS AND MISSOURI......

CITY           SKY/WX    TMP DP  RH WIND       PRES   REMARKS
KANSAS CTY INT MOSUNNY   87  67  51 W3        30.08F HX  90
DOWNTOWN KC    SUNNY     90  68  48 NW6       30.06F HX  94
COLUMBIA       SUNNY     89  63  41 W7        30.07F HX  90
SEDALIA        SUNNY     91  60  35 W7        30.08F HX  90
ST JOSEPH      SUNNY     88  72  58 VRB5      30.06F HX  94
ST LOUIS       MOSUNNY   93  60  33 NW10      30.04F HX  93
SPIRIT OF STL  MOSUNNY   92  60  34 NW6       30.03F HX  91
KIRKSVILLE     SUNNY     87  65  47 VRB6      30.06F
WICHITA        MOSUNNY   89  67  47 CALM      30.08F HX  92
TOPEKA         SUNNY     89  66  46 SE3       30.07F HX  91
OLATHE         SUNNY     89  62  40 NW3       30.08F

......TENNESSEE......

CITY           SKY/WX    TMP DP  RH WIND       PRES   REMARKS
MEMPHIS        MOSUNNY   92  60  34 NE8       30.03F HX  91
NASHVILLE      MOSUNNY   89  60  37 N10       30.02F

......ARKANSAS.......

CITY           SKY/WX    TMP DP  RH WIND       PRES   REMARKS
FAYETTEVILLE   SUNNY     86  60  41 S7        30.11F
FT SMITH       SUNNY     91  58  32 E5        30.05F HX  90
LITTLE ROCK    MOSUNNY   93  62  35 SE6       30.04F HX  93

......OKLAHOMA.......

CITY           SKY/WX    TMP DP  RH WIND       PRES   REMARKS
TULSA          PTSUNNY   89  71  55 E7        30.05F HX  95
PONCA CITY     PTSUNNY   88  72  58 SE13      30.07S HX  94
MCALESTER      SUNNY     92  67  43 CALM      30.06F HX  95
OKLAHOMA CITY  CLOUDY    81  77  88 S7        30.08F

......IOWA............

CITY           SKY/WX    TMP DP  RH WIND       PRES   REMARKS
DES MOINES     PTSUNNY   87  65  47 NE6       30.05F
QUAD CITIES    SUNNY     87  53  31 NW16G25   30.01S

......ILLINOIS........

CITY           SKY/WX    TMP DP  RH WIND       PRES   REMARKS
QUINCY         SUNNY     87  64  46 NW8       30.04F
CHICAGO        SUNNY     86  48  26 NW21G31   29.93S



USA.gov is the U.S. government's official web portal to all federal, state and local government web resources and services.